Time,TemperatureF,DewpointF,PressureIn,WindDirection,WindDirectionDegrees,WindSpeedMPH,WindSpeedGustMPH,Humidity,HourlyPrecipIn,Conditions,Clouds,dailyrainin,SoftwareType,DateUTC
2013-04-02 14:00:00,40.9,37.3,30.11,East,90,11.2,11.2,87,0.02,,,0.00,WUHU216HW,2013-04-02 19:00:00,
2013-04-02 14:05:00,41.0,37.5,30.11,NNE,23,8.5,13.9,87,0.02,,,0.00,WUHU216HW,2013-04-02 19:05:00,
2013-04-02 14:10:00,41.2,37.6,30.12,East,90,4.3,13.9,87,0.01,,,0.00,WUHU216HW,2013-04-02 19:10:00,
2013-04-02 14:15:00,41.2,37.6,30.12,NE,45,12.1,13.2,87,0.01,,,0.00,WUHU216HW,2013-04-02 19:15:00,
2013-04-02 14:20:00,41.4,37.8,30.12,NE,45,6.0,13.2,87,0.00,,,0.00,WUHU216HW,2013-04-02 19:20:00,
2013-04-02 14:25:00,41.4,37.4,30.12,NNE,23,6.0,12.1,86,0.00,,,0.00,WUHU216HW,2013-04-02 19:25:00,
2013-04-02 14:30:00,41.8,37.8,30.12,East,90,4.9,9.6,86,0.00,,,0.00,WUHU216HW,2013-04-02 19:30:00,
2013-04-02 14:35:00,41.8,37.8,30.11,ENE,68,6.3,9.6,86,0.00,,,0.00,WUHU216HW,2013-04-02 19:35:00,
2013-04-02 14:40:00,41.6,37.6,30.11,NNE,23,5.4,10.5,86,0.00,,,0.00,WUHU216HW,2013-04-02 19:40:00,
2013-04-02 14:45:00,41.4,37.4,30.12,NNE,23,8.1,10.5,86,0.00,,,0.00,WUHU216HW,2013-04-02 19:45:00,
2013-04-02 14:50:00,41.4,37.4,30.11,NNE,23,5.6,10.5,86,0.00,,,0.00,WUHU216HW,2013-04-02 19:50:00,
2013-04-02 14:55:00,41.4,37.4,30.10,NNE,23,8.5,11.4,86,0.00,,,0.00,WUHU216HW,2013-04-02 19:55:00,
2013-04-02 15:00:00,41.4,37.4,30.11,NE,45,9.8,11.4,86,0.00,,,0.00,WUHU216HW,2013-04-02 20:00:00,
2013-04-02 15:05:00,41.8,37.8,30.11,North,0,8.7,11.0,86,0.00,,,0.00,WUHU216HW,2013-04-02 20:05:00,
2013-04-02 15:10:00,41.6,37.6,30.11,ENE,68,7.8,11.0,86,0.00,,,0.00,WUHU216HW,2013-04-02 20:10:00,
2013-04-02 15:15:00,41.6,37.6,30.11,NNE,23,7.8,9.8,86,0.00,,,0.00,WUHU216HW,2013-04-02 20:15:00,
2013-04-02 15:20:00,41.6,37.6,30.11,NE,45,12.1,12.1,86,0.00,,,0.00,WUHU216HW,2013-04-02 20:20:00,
2013-04-02 15:26:00,41.4,37.4,30.12,NE,45,11.0,13.4,86,0.00,,,0.00,WUHU216HW,2013-04-02 20:26:00,
2013-04-02 15:31:00,41.6,37.4,30.12,NE,45,5.1,13.4,85,0.00,,,0.00,WUHU216HW,2013-04-02 20:31:00,
2013-04-02 15:36:00,41.6,37.4,30.12,ENE,68,4.5,10.5,85,0.00,,,0.00,WUHU216HW,2013-04-02 20:36:00,
2013-04-02 15:41:00,41.4,37.4,30.11,NE,45,9.2,11.9,86,0.00,,,0.00,WUHU216HW,2013-04-02 20:41:00,
2013-04-02 15:46:00,41.4,37.2,30.12,ENE,68,11.4,13.2,85,0.00,,,0.00,WUHU216HW,2013-04-02 20:46:00,
2013-04-02 15:51:00,41.4,37.4,30.11,NE,45,6.0,13.2,86,0.00,,,0.00,WUHU216HW,2013-04-02 20:51:00,
2013-04-02 15:56:00,41.4,37.4,30.11,ENE,68,4.0,11.4,86,0.01,,,0.01,WUHU216HW,2013-04-02 20:56:00,
2013-04-02 16:01:00,41.4,37.4,30.11,NE,45,7.6,8.9,86,0.02,,,0.03,WUHU216HW,2013-04-02 21:01:00,
2013-04-02 16:06:00,41.4,37.8,30.11,NNE,23,4.0,10.7,87,0.02,,,0.03,WUHU216HW,2013-04-02 21:06:00,
2013-04-02 16:11:00,41.4,37.8,30.11,NE,45,8.3,11.4,87,0.02,,,0.03,WUHU216HW,2013-04-02 21:11:00,
2013-04-02 16:16:00,41.4,37.8,30.12,NE,45,5.8,11.4,87,0.02,,,0.03,WUHU216HW,2013-04-02 21:16:00,
2013-04-02 16:21:00,41.4,37.8,30.11,NNW,338,7.4,11.0,87,0.02,,,0.03,WUHU216HW,2013-04-02 21:21:00,
2013-04-02 16:27:00,41.4,37.4,30.11,North,0,12.3,12.5,86,0.02,,,0.03,WUHU216HW,2013-04-02 21:27:00,
2013-04-02 16:32:00,41.4,37.8,30.11,NNE,23,6.9,12.5,87,0.02,,,0.03,WUHU216HW,2013-04-02 21:32:00,
2013-04-02 16:37:00,41.4,37.8,30.11,NE,45,6.0,14.3,87,0.02,,,0.03,WUHU216HW,2013-04-02 21:37:00,
2013-04-02 16:43:00,41.6,37.6,30.10,ENE,68,12.8,14.3,86,0.02,,,0.03,WUHU216HW,2013-04-02 21:43:00,
2013-04-02 16:48:00,41.4,37.4,30.10,NE,45,9.2,13.2,86,0.01,,,0.03,WUHU216HW,2013-04-02 21:48:00,
2013-04-02 16:53:00,41.4,37.4,30.10,North,0,10.5,13.2,86,0.01,,,0.03,WUHU216HW,2013-04-02 21:53:00,
2013-04-02 16:58:00,41.4,37.8,30.09,NNE,23,8.5,13.0,87,0.00,,,0.03,WUHU216HW,2013-04-02 21:58:00,
2013-04-02 17:03:00,41.4,37.8,30.09,NE,45,9.8,11.6,87,0.00,,,0.03,WUHU216HW,2013-04-02 22:03:00,
2013-04-02 17:08:00,41.4,37.8,30.09,ENE,68,8.5,12.8,87,0.00,,,0.03,WUHU216HW,2013-04-02 22:08:00,
2013-04-02 17:13:00,41.4,37.8,30.09,NNE,23,7.8,12.8,87,0.00,,,0.03,WUHU216HW,2013-04-02 22:13:00,
2013-04-02 17:18:00,41.4,37.8,30.09,NE,45,6.5,13.9,87,0.00,,,0.03,WUHU216HW,2013-04-02 22:18:00,
2013-04-02 17:23:00,41.4,37.4,30.09,NNW,338,12.3,15.0,86,0.00,,,0.03,WUHU216HW,2013-04-02 22:23:00,
2013-04-02 17:28:00,41.4,37.4,30.09,North,0,8.5,15.0,86,0.00,,,0.03,WUHU216HW,2013-04-02 22:28:00,
2013-04-02 17:33:00,41.4,37.8,30.09,NE,45,7.8,13.9,87,0.01,,,0.03,WUHU216HW,2013-04-02 22:33:00,
2013-04-02 17:38:00,41.2,37.6,30.09,NNE,23,6.3,13.6,87,0.02,,,0.05,WUHU216HW,2013-04-02 22:38:00,
2013-04-02 17:43:00,41.2,37.6,30.09,NE,45,9.8,12.3,87,0.04,,,0.07,WUHU216HW,2013-04-02 22:43:00,
2013-04-02 17:48:00,41.2,37.6,30.08,ENE,68,10.5,12.3,87,0.04,,,0.07,WUHU216HW,2013-04-02 22:48:00,
2013-04-02 17:53:00,41.4,37.8,30.08,North,0,11.4,15.2,87,0.04,,,0.07,WUHU216HW,2013-04-02 22:53:00,
2013-04-02 17:58:00,41.4,37.8,30.09,NE,45,10.5,15.2,87,0.05,,,0.08,WUHU216HW,2013-04-02 22:58:00,
2013-04-02 18:03:00,41.4,37.8,30.08,ENE,68,13.9,14.3,87,0.05,,,0.08,WUHU216HW,2013-04-02 23:03:00,
2013-04-02 18:08:00,41.2,37.6,30.06,East,90,7.8,14.3,87,0.05,,,0.08,WUHU216HW,2013-04-02 23:08:00,
2013-04-02 18:13:00,41.4,37.8,30.09,NE,45,11.6,13.9,87,0.05,,,0.08,WUHU216HW,2013-04-02 23:13:00,
2013-04-02 18:18:00,41.4,37.8,30.09,NE,45,6.3,11.6,87,0.05,,,0.08,WUHU216HW,2013-04-02 23:18:00,
2013-04-02 18:23:00,41.4,37.8,30.09,NE,45,7.8,11.9,87,0.05,,,0.08,WUHU216HW,2013-04-02 23:23:00,
2013-04-02 18:28:00,41.4,37.8,30.10,NE,45,8.9,13.2,87,0.05,,,0.08,WUHU216HW,2013-04-02 23:28:00,
2013-04-02 18:34:00,41.4,37.8,30.10,NE,45,9.2,14.5,87,0.04,,,0.08,WUHU216HW,2013-04-02 23:34:00,
2013-04-02 18:39:00,41.4,37.8,30.10,NNE,23,8.3,14.5,87,0.03,,,0.08,WUHU216HW,2013-04-02 23:39:00,
2013-04-02 18:44:00,41.4,37.8,30.10,NNE,23,9.2,13.9,87,0.01,,,0.08,WUHU216HW,2013-04-02 23:44:00,
2013-04-02 18:49:00,41.4,37.8,30.10,NNE,23,4.9,13.9,87,0.01,,,0.08,WUHU216HW,2013-04-02 23:49:00,
2013-04-02 18:54:00,41.6,38.0,30.10,NE,45,4.9,12.8,87,0.01,,,0.08,WUHU216HW,2013-04-02 23:54:00,
2013-04-02 18:59:00,41.8,38.2,30.10,North,0,5.8,12.8,87,0.00,,,0.08,WUHU216HW,2013-04-02 23:59:00,
2013-04-02 19:04:00,41.8,37.8,30.10,NNE,23,5.4,12.8,86,0.00,,,0.08,WUHU216HW,2013-04-03 00:04:00,
2013-04-02 19:09:00,41.8,37.8,30.10,ENE,68,12.8,13.2,86,0.00,,,0.08,WUHU216HW,2013-04-03 00:09:00,
2013-04-02 19:14:00,41.6,37.6,30.09,North,0,7.8,13.2,86,0.00,,,0.08,WUHU216HW,2013-04-03 00:14:00,
2013-04-02 19:19:00,41.6,37.6,30.10,North,0,6.9,13.0,86,0.00,,,0.08,WUHU216HW,2013-04-03 00:19:00,
2013-04-02 19:24:00,41.8,37.8,30.10,ENE,68,6.7,11.2,86,0.00,,,0.08,WUHU216HW,2013-04-03 00:24:00,
2013-04-02 19:29:00,41.8,37.8,30.11,ENE,68,9.6,10.5,86,0.00,,,0.08,WUHU216HW,2013-04-03 00:29:00,
2013-04-02 19:34:00,41.6,37.6,30.10,NE,45,4.5,13.2,86,0.00,,,0.08,WUHU216HW,2013-04-03 00:34:00,
2013-04-02 19:39:00,41.6,37.6,30.10,NE,45,7.8,13.2,86,0.00,,,0.08,WUHU216HW,2013-04-03 00:39:00,
2013-04-02 19:44:00,41.6,37.6,30.10,ENE,68,6.9,12.8,86,0.00,,,0.08,WUHU216HW,2013-04-03 00:44:00,
2013-04-02 19:49:00,41.4,37.4,30.10,NNE,23,3.4,12.8,86,0.00,,,0.08,WUHU216HW,2013-04-03 00:49:00,
2013-04-02 19:54:00,41.4,37.4,30.10,ENE,68,7.2,9.2,86,0.00,,,0.08,WUHU216HW,2013-04-03 00:54:00,
2013-04-02 19:59:00,41.4,37.4,30.10,NE,45,8.7,9.4,86,0.00,,,0.08,WUHU216HW,2013-04-03 00:59:00,
2013-04-02 20:04:00,41.4,37.4,30.10,NE,45,9.2,11.9,86,0.00,,,0.08,WUHU216HW,2013-04-03 01:04:00,
2013-04-02 20:09:00,41.4,37.4,30.09,NE,45,8.5,11.9,86,0.00,,,0.08,WUHU216HW,2013-04-03 01:09:00,
2013-04-02 22:00:00,40.5,36.9,30.12,NE,45,5.1,5.1,87,0.01,,,0.08,WUHU216HW,2013-04-03 03:00:00,
2013-04-02 22:05:00,40.5,36.9,30.12,NE,45,4.9,6.7,87,0.01,,,0.09,WUHU216HW,2013-04-03 03:05:00,
2013-04-02 22:10:00,40.5,36.9,30.12,ENE,68,7.6,7.6,87,0.01,,,0.09,WUHU216HW,2013-04-03 03:10:00,
2013-04-02 22:15:00,40.3,36.7,30.12,ENE,68,7.6,9.4,87,0.01,,,0.09,WUHU216HW,2013-04-03 03:15:00,
2013-04-02 22:20:00,40.5,36.9,30.12,ENE,68,4.5,9.8,87,0.00,,,0.09,WUHU216HW,2013-04-03 03:20:00,
2013-04-02 22:25:00,40.3,36.7,30.12,ENE,68,8.3,9.8,87,0.00,,,0.09,WUHU216HW,2013-04-03 03:25:00,
2013-04-02 22:30:00,40.3,36.7,30.12,ENE,68,5.6,10.5,87,0.00,,,0.09,WUHU216HW,2013-04-03 03:30:00,
2013-04-02 22:35:00,40.3,36.7,30.12,NE,45,9.2,10.7,87,0.00,,,0.09,WUHU216HW,2013-04-03 03:35:00,
2013-04-02 22:40:00,40.3,36.7,30.12,ENE,68,7.6,11.2,87,0.00,,,0.09,WUHU216HW,2013-04-03 03:40:00,
2013-04-02 22:45:00,40.1,36.5,30.11,East,90,6.5,10.5,87,0.00,,,0.09,WUHU216HW,2013-04-03 03:45:00,
2013-04-02 22:50:00,40.1,36.5,30.12,ENE,68,4.7,10.1,87,0.00,,,0.09,WUHU216HW,2013-04-03 03:50:00,
2013-04-02 22:55:00,40.3,36.7,30.12,NE,45,5.8,10.1,87,0.00,,,0.09,WUHU216HW,2013-04-03 03:55:00,
2013-04-02 23:00:00,40.3,36.7,30.12,ENE,68,4.9,10.1,87,0.00,,,0.09,WUHU216HW,2013-04-03 04:00:00,
2013-04-02 23:05:00,40.5,36.6,30.12,ENE,68,6.7,11.9,86,0.00,,,0.09,WUHU216HW,2013-04-03 04:05:00,
2013-04-02 23:10:00,40.5,36.6,30.12,ENE,68,6.7,11.9,86,0.00,,,0.09,WUHU216HW,2013-04-03 04:10:00,
2013-04-02 23:15:00,40.7,36.5,30.11,NNE,23,5.4,10.7,85,0.00,,,0.09,WUHU216HW,2013-04-03 04:15:00,
2013-04-02 23:20:00,40.7,36.2,30.11,ESE,113,5.4,12.1,84,0.00,,,0.09,WUHU216HW,2013-04-03 04:20:00,
2013-04-02 23:25:00,40.7,36.2,30.11,East,90,3.4,12.1,84,0.00,,,0.09,WUHU216HW,2013-04-03 04:25:00,
2013-04-02 23:30:00,40.9,36.4,30.11,NE,45,8.1,10.1,84,0.00,,,0.09,WUHU216HW,2013-04-03 04:30:00,
2013-04-02 23:35:00,40.9,36.0,30.11,ENE,68,4.0,10.5,83,0.00,,,0.09,WUHU216HW,2013-04-03 04:35:00,
2013-04-02 23:40:00,40.9,36.0,30.10,NE,45,8.7,10.5,83,0.00,,,0.09,WUHU216HW,2013-04-03 04:40:00,
2013-04-02 23:45:00,41.0,36.2,30.10,NE,45,8.9,9.4,83,0.00,,,0.09,WUHU216HW,2013-04-03 04:45:00,
2013-04-02 23:50:00,41.0,35.9,30.10,NE,45,4.5,9.6,82,0.00,,,0.09,WUHU216HW,2013-04-03 04:50:00,
2013-04-02 23:55:00,41.0,36.2,30.10,NE,45,10.3,10.5,83,0.00,,,0.09,WUHU216HW,2013-04-03 04:55:00,